Weather History for KTKI - September, 2013

Change the Weather History Date:

Saturday, September 21, 2013

  Actual Average (KADS) Record (KADS)
Temperature  
Mean Temperature 72 °F -  
Max Temperature 84 °F 85 °F 96 °F (2005)
Min Temperature 61 °F 66 °F 53 °F (2007)
Cooling Degree Days 8    
Growing Degree Days 22 (Base 50)    
Moisture  
Dew Point 52 °F    
Average Humidity 55    
Maximum Humidity 81    
Minimum Humidity 25    
Precipitation  
Precipitation 0.00 in - - ()
Sea Level Pressure  
Sea Level Pressure 29.93 in    
Wind  
Wind Speed 9 mph (NNE)    
Max Wind Speed 17 mph    
Max Gust Speed 22 mph    
Visibility 10 miles    
Events      
Averages and records for this station are not official NWS values.
T = Trace of Precipitation, MM = Missing Value Source: NWS Daily Summary

Daily Weather History Graph

Daily Weather History Graph

Search for Another Location

Airport or City:

Trip Planner

Search our weather history database for the weather conditions in past years. The results will help you decide how hot, cold, wet, or windy it might be!

Date:

Astronomy

Sep. 21, 2013 Rise Set
Actual Time 7:14 AM CDT 7:24 PM CDT
Civil Twilight 6:49 AM CDT 7:48 PM CDT
Nautical Twilight 6:20 AM CDT 8:17 PM CDT
Astronomical Twilight 5:51 AM CDT 8:46 PM CDT
Moon 8:46 PM CDT (9/21) 9:24 AM CDT (9/21)
Length of Visible Light 12h 59m
Length of Day
12h 10m
Waning Gibbous, 94% of the Moon is Illuminated
Sep 21
Waning Gibbous
Sep 26
Last Quarter
Oct 4
New
Oct 11
First Quarter
Oct 18
Full

Hourly Weather History & Observations

Time (CDT) Temp. Dew Point Humidity Pressure Visibility Wind Dir Wind Speed Gust Speed Precip Events Conditions
12:53 AM 66.9 °F 59.0 °F 76% 29.94 in 10.0 mi North 8.1 mph - N/A   Scattered Clouds
1:53 AM 66.0 °F 57.0 °F 73% 29.94 in 10.0 mi North 9.2 mph - N/A   Clear
2:53 AM 64.9 °F 57.0 °F 75% 29.94 in 10.0 mi North 10.4 mph - N/A   Clear
3:53 AM 64.0 °F 57.0 °F 78% 29.94 in 10.0 mi North 8.1 mph - N/A   Clear
4:53 AM 63.0 °F 57.0 °F 81% 29.94 in 10.0 mi North 9.2 mph - N/A   Clear
5:53 AM 62.1 °F 55.0 °F 78% 29.95 in 10.0 mi North 10.4 mph - N/A   Clear
6:53 AM 61.0 °F 54.0 °F 78% 29.96 in 10.0 mi North 9.2 mph - N/A   Clear
7:53 AM 61.0 °F 54.0 °F 78% 29.98 in 10.0 mi North 5.8 mph - N/A   Clear
8:53 AM 66.0 °F 53.1 °F 63% 29.98 in 10.0 mi NNE 10.4 mph - N/A   Clear
9:53 AM 71.1 °F 50.0 °F 47% 29.99 in 10.0 mi NNE 8.1 mph 18.4 mph N/A   Clear
10:53 AM 73.9 °F 48.0 °F 40% 29.98 in 10.0 mi NNE 15.0 mph 21.9 mph N/A   Clear
11:53 AM 75.9 °F 46.9 °F 36% 29.97 in 10.0 mi NNE 17.3 mph - N/A   Clear
12:53 PM 78.1 °F 46.9 °F 33% 29.96 in 10.0 mi NNE 12.7 mph 21.9 mph N/A   Clear
1:53 PM 80.1 °F 46.9 °F 31% 29.94 in 10.0 mi NE 10.4 mph - N/A   Clear
2:53 PM 82.0 °F 48.0 °F 30% 29.91 in 10.0 mi North 10.4 mph 20.7 mph N/A   Clear
3:53 PM 82.9 °F 46.9 °F 28% 29.88 in 10.0 mi NNE 9.2 mph - N/A   Clear
4:53 PM 84.0 °F 45.0 °F 25% 29.88 in 10.0 mi NNE 11.5 mph 16.1 mph N/A   Clear
5:53 PM 82.9 °F 44.1 °F 25% 29.87 in 10.0 mi NE 9.2 mph - N/A   Clear
6:53 PM 80.1 °F 48.0 °F 32% 29.88 in 10.0 mi NNE 5.8 mph - N/A   Clear
7:53 PM 75.0 °F 48.9 °F 40% 29.88 in 10.0 mi North 3.5 mph - N/A   Clear
8:53 PM 70.0 °F 52.0 °F 53% 29.89 in 10.0 mi Calm Calm - N/A   Clear
9:53 PM 66.0 °F 54.0 °F 65% 29.90 in 10.0 mi Calm Calm - N/A   Clear
10:53 PM 61.0 °F 55.0 °F 81% 29.91 in 10.0 mi North 4.6 mph - N/A   Clear
11:53 PM 62.1 °F 54.0 °F 75% 29.90 in 10.0 mi North 4.6 mph - N/A   Clear